{"data":{"norad_id":54193,"intl_designator":"2022-141AN","name":"STARLINK-5263","alt_names":[],"object_type":"PAYLOAD","status":"ACTIVE","operator":null,"country":"US","launch_date":"2022-10-28","launch_site_code":"AFWTR","launch_vehicle":null,"mission":null,"orbit_class":"UNKNOWN","rcs_meters":null,"size_class":null,"mass_kg":null,"dimensions":null,"purposes":["comms"],"wikipedia_slug":null,"has_3d_model":false,"image_url":null,"decayed_at":null,"tle_current":{"epoch":"2026-09-20T10:27:10.687968Z","epoch_age_seconds":94925,"freshness":"FRESH","line1":"1 54193U 22141AN  26263.43554037  .00001251  00000+0  48177-4 0  9991","line2":"2 54193  53.1610 189.6904 0001344  88.8997 271.2160 15.34391710215537","mean_motion":15.3439171,"eccentricity":0.0001344,"inclination_deg":53.161,"raan_deg":189.6904,"arg_perigee_deg":88.8997,"mean_anomaly_deg":271.216,"bstar":4.8177e-5,"rev_number":21553,"period_min":93.848265121297,"perigee_km":461.80846770521,"apogee_km":463.64729218494,"semimajor_km":6840.8648799451,"source":"CELESTRAK","updated_at":"2026-09-21T09:00:33.114912Z"}}}